TimeEDT,TemperatureF,Dew PointF,Humidity,Sea Level PressureIn,VisibilityMPH,Wind Direction,Wind SpeedMPH,Gust SpeedMPH,PrecipitationIn,Events,Conditions,WindDirDegrees,DateUTC
12:51 AM,43.9,41.9,93,30.32,10.0,WNW,4.6,-,N/A,,Overcast,300,2012-10-09 04:51:00
1:51 AM,45.0,41.9,89,30.33,10.0,NW,3.5,-,N/A,,Overcast,320,2012-10-09 05:51:00
2:51 AM,45.0,41.9,89,30.31,10.0,NW,4.6,-,N/A,,Overcast,310,2012-10-09 06:51:00
3:51 AM,45.0,43.0,93,30.31,10.0,NW,3.5,-,N/A,,Overcast,310,2012-10-09 07:51:00
4:51 AM,45.0,43.0,93,30.31,10.0,WNW,5.8,-,N/A,,Clear,300,2012-10-09 08:51:00
5:51 AM,45.9,43.0,90,30.30,10.0,NW,4.6,-,N/A,,Mostly Cloudy,320,2012-10-09 09:51:00
6:13 AM,46.4,42.8,87,30.29,10.0,NW,3.5,-,N/A,,Overcast,310,2012-10-09 10:13:00
7:29 AM,46.4,42.8,87,30.30,9.0,NNW,3.5,-,N/A,,Overcast,340,2012-10-09 11:29:00
7:51 AM,46.9,43.0,86,30.30,10.0,NNW,3.5,-,N/A,,Overcast,330,2012-10-09 11:51:00
8:51 AM,46.9,43.0,86,30.31,10.0,NNW,5.8,-,N/A,,Mostly Cloudy,330,2012-10-09 12:51:00
9:51 AM,47.8,43.9,86,30.31,10.0,NNW,4.6,-,0.00,Rain,Light Rain,330,2012-10-09 13:51:00
10:51 AM,50.9,45.9,83,30.30,10.0,North,3.5,-,0.00,,Mostly Cloudy,10,2012-10-09 14:51:00
11:51 AM,54.0,45.9,74,30.29,10.0,North,4.6,-,N/A,,Overcast,360,2012-10-09 15:51:00
12:19 PM,53.6,46.4,77,30.26,10.0,NNE,5.8,-,N/A,,Overcast,30,2012-10-09 16:19:00
12:27 PM,55.4,46.4,72,30.26,10.0,NNE,4.6,-,N/A,,Overcast,30,2012-10-09 16:27:00
12:51 PM,54.9,46.9,75,30.27,10.0,ENE,5.8,-,N/A,,Overcast,60,2012-10-09 16:51:00
1:36 PM,55.4,46.4,72,30.24,9.0,East,6.9,-,N/A,,Overcast,80,2012-10-09 17:36:00
1:51 PM,54.9,46.9,75,30.25,10.0,Variable,6.9,-,N/A,,Mostly Cloudy,0,2012-10-09 17:51:00
1:59 PM,55.4,46.4,72,30.24,10.0,East,6.9,-,N/A,,Overcast,80,2012-10-09 17:59:00
2:51 PM,54.9,45.9,72,30.24,10.0,ENE,5.8,-,N/A,,Overcast,60,2012-10-09 18:51:00
3:51 PM,55.9,43.9,64,30.22,10.0,East,9.2,-,N/A,,Overcast,100,2012-10-09 19:51:00
4:51 PM,54.9,45.9,72,30.22,10.0,East,8.1,-,N/A,,Mostly Cloudy,80,2012-10-09 20:51:00
5:51 PM,54.0,45.9,74,30.21,10.0,East,5.8,-,N/A,,Overcast,100,2012-10-09 21:51:00
6:51 PM,54.0,45.9,74,30.21,10.0,East,8.1,-,N/A,,Overcast,90,2012-10-09 22:51:00
7:10 PM,53.6,44.6,72,30.20,10.0,East,4.6,-,N/A,,Overcast,90,2012-10-09 23:10:00
7:51 PM,52.9,45.0,74,30.21,10.0,ENE,4.6,-,N/A,,Overcast,70,2012-10-09 23:51:00
8:51 PM,52.9,45.0,74,30.20,10.0,ENE,4.6,-,N/A,,Overcast,70,2012-10-10 00:51:00
9:51 PM,50.9,43.9,77,30.20,10.0,North,3.5,-,N/A,,Overcast,10,2012-10-10 01:51:00
10:51 PM,50.9,43.9,77,30.19,10.0,Calm,Calm,-,N/A,,Overcast,0,2012-10-10 02:51:00
11:51 PM,50.0,43.9,79,30.16,10.0,NNE,4.6,-,N/A,,Overcast,30,2012-10-10 03:51:00